This demonstration page uses our WeatherBlox Daily Observations layout. Learn more.

Left ArrowRight Arrow

Hourly Observations for April 5, 2020

Temp ( °F °C ) Dew Point ( °F °C ) Humidity (%) Winds ( mph kmh ) Pressure ( in mb ) Visibility ( mi km ) Precip ( " mm )
12:15 am 00:15 Clear 45 7 43 6 93 93 S 3 6 30.09 1019 10 16.0934 0 0
12:35 am 00:35 Clear 43 6 41 5 93 93 SW 3 6 30.09 1019 10 16.0934 0 0
12:55 am 00:55 Clear 41 5 41 5 100 100 WSW 3 6 30.09 1019 10 16.0934 0 0
1:15 am 01:15 Clear 43 6 41 5 93 93 SW 3 6 30.09 1019 10 16.0934 0 0
1:35 am 01:35 Clear 43 6 41 5 93 93 SW 3 6 30.09 1019 10 16.0934 0 0
1:55 am 01:55 Clear 43 6 41 5 93 93 SSW 3 6 30.09 1019 10 16.0934 0 0
2:15 am 02:15 Clear 45 7 43 6 93 93 S 5 7 30.09 1019 10 16.0934 0 0
2:35 am 02:35 Clear 45 7 43 6 93 93 SSW 6 9 30.09 1019 10 16.0934 0 0
2:55 am 02:55 Clear 41 5 39 4 93 93 SSW 6 9 30.09 1019 10 16.0934 0 0
3:15 am 03:15 Clear 41 5 41 5 100 100 SSW 5 7 30.08 1019 10 16.0934 0 0
3:35 am 03:35 Clear 41 5 39 4 93 93 Calm 30.08 1019 10 16.0934 0 0
3:55 am 03:55 Clear 41 5 41 5 100 100 SSW 3 6 30.07 1018 10 16.0934 0 0
4:15 am 04:15 Clear 41 5 39 4 93 93 SSW 6 9 30.07 1018 10 16.0934 0 0
4:35 am 04:35 Clear 39 4 39 4 100 100 SW 3 6 30.08 1018 10 16.0934 0 0
4:55 am 04:55 Clear 37 3 37 3 100 100 WSW 3 6 30.09 1019 10 16.0934 0 0
5:15 am 05:15 Clear 37 3 37 3 100 100 SW 5 7 30.08 1019 10 16.0934 0 0
5:35 am 05:35 Clear 37 3 37 3 100 100 SW 3 6 30.09 1019 10 16.0934 0 0
5:55 am 05:55 Clear 37 3 37 3 100 100 SW 5 7 30.09 1019 10 16.0934 0 0
6:15 am 06:15 Clear 37 3 37 3 100 100 WSW 5 7 30.09 1019 10 16.0934 0 0
6:35 am 06:35 Clear 37 3 37 3 100 100 SSW 3 6 30.09 1019 10 16.0934 0 0
6:55 am 06:55 Sunny 39 4 39 4 100 100 Calm 30.1 1019 10 16.0934 0 0
7:15 am 07:15 Sunny 39 4 39 4 100 100 SSW 3 6 30.1 1019 10 16.0934 0 0
7:35 am 07:35 Sunny 41 5 41 5 100 100 S 5 7 30.1 1019 10 16.0934 0 0
7:55 am 07:55 Sunny 43 6 43 6 100 100 Calm 30.1 1019 10 16.0934 0 0
8:15 am 08:15 Sunny 43 6 41 5 93 93 Calm 30.11 1020 10 16.0934 0 0
8:35 am 08:35 Sunny 45 7 43 6 93 93 Calm 30.11 1020 10 16.0934 0 0
8:55 am 08:55 Sunny 45 7 43 6 93 93 Calm 30.11 1020 10 16.0934 0 0
9:15 am 09:15 Sunny 46 8 45 7 93 93 Calm 30.11 1020 10 16.0934 0 0
9:35 am 09:35 Sunny 50 10 45 7 82 82 Calm 30.11 1020 10 16.0934 0 0
9:55 am 09:55 Sunny 52 11 46 8 82 82 SSE 3 6 30.1 1019 10 16.0934 0 0
10:15 am 10:15 Sunny 54 12 46 8 77 77 Calm 30.1 1019 10 16.0934 0 0
10:35 am 10:35 Sunny 55 13 46 8 72 72 Calm 30.1 1019 10 16.0934 0 0
10:55 am 10:55 Sunny 57 14 46 8 67 67 SSW 7 11 30.1 1019 10 16.0934 0 0
11:15 am 11:15 Sunny 59 15 46 8 63 63 S 3 6 30.1 1019 10 16.0934 0 0
11:35 am 11:35 Sunny 59 15 46 8 63 63 S 5 7 30.1 1019 10 16.0934 0 0
11:55 am 11:55 Sunny 61 16 48 9 63 63 SSW 3 6 30.1 1019 10 16.0934 0 0
12:15 pm 12:15 Sunny 61 16 46 8 59 59 Calm 30.09 1019 10 16.0934 0 0
12:35 pm 12:35 Mostly Cloudy 63 17 46 8 56 56 SE 5 7 30.09 1019 10 16.0934 0 0
12:55 pm 12:55 Cloudy 63 17 46 8 56 56 N 3 6 30.08 1018 10 16.0934 0 0
1:15 pm 13:15 Cloudy 63 17 46 8 56 56 S 6 9 30.07 1018 10 16.0934 0 0
1:35 pm 13:35 Cloudy 63 17 46 8 56 56 S 5 7 30.07 1018 10 16.0934 0 0
1:55 pm 13:55 Partly Cloudy 64 18 46 8 52 52 Calm 30.05 1018 10 16.0934 0 0
2:15 pm 14:15 Mostly Cloudy 64 18 46 8 52 52 Calm 30.04 1017 10 16.0934 0 0
2:35 pm 14:35 Cloudy 64 18 46 8 52 52 ESE 3 6 30.04 1017 10 16.0934 0 0
2:55 pm 14:55 Cloudy 64 18 45 7 49 49 Calm 30.03 1017 10 16.0934 0 0
3:15 pm 15:15 Cloudy 64 18 46 8 52 52 Calm 30.03 1017 10 16.0934 0 0
3:35 pm 15:35 Cloudy 64 18 46 8 52 52 Calm 30.02 1017 10 16.0934 0 0
3:55 pm 15:55 Cloudy 66 19 46 8 49 49 Calm 30.01 1016 10 16.0934 0 0
4:15 pm 16:15 Partly Cloudy 68 20 46 8 46 46 Calm 30.01 1016 10 16.0934 0 0
4:35 pm 16:35 Partly Cloudy 68 20 46 8 46 46 Calm 30.01 1016 10 16.0934 0 0
4:55 pm 16:55 Sunny 68 20 46 8 46 46 Calm 30 1016 10 16.0934 0 0
5:15 pm 17:15 Sunny 68 20 46 8 46 46 SSE 3 6 30 1016 10 16.0934 0 0
5:35 pm 17:35 Sunny 70 21 46 8 43 43 Calm 30 1016 10 16.0934 0 0
5:55 pm 17:55 Sunny 68 20 46 8 46 46 Calm 30 1016 10 16.0934 0 0
6:15 pm 18:15 Sunny 68 20 46 8 46 46 SSE 3 6 30 1016 10 16.0934 0 0
6:35 pm 18:35 Mostly Cloudy 68 20 46 8 46 46 SSE 5 7 30 1016 10 16.0934 0 0
6:55 pm 18:55 Cloudy 66 19 48 9 52 52 Calm 30.01 1016 10 16.0934 0 0
7:15 pm 19:15 Cloudy 64 18 50 10 60 60 Calm 30.01 1016 10 16.0934 0 0
7:55 pm 19:55 Cloudy 63 17 50 10 64 64 WNW 9 15 30.02 1016 10 16.0934 0 0
8:15 pm 20:15 Cloudy 63 17 50 10 64 64 W 3 6 30.03 1017 10 16.0934 0 0
8:35 pm 20:35 Cloudy 63 17 50 10 64 64 W 3 6 30.03 1017 10 16.0934 0 0
8:55 pm 20:55 Cloudy 61 16 50 10 68 68 Calm 30.02 1016 10 16.0934 0 0
9:15 pm 21:15 Mostly Cloudy 61 16 50 10 68 68 W 5 7 30.03 1017 10 16.0934 0 0
9:35 pm 21:35 Mostly Cloudy 61 16 52 11 72 72 W 5 7 30.04 1017 10 16.0934 0 0
9:55 pm 21:55 Cloudy 61 16 52 11 72 72 W 3 6 30.05 1018 10 16.0934 0 0
10:15 pm 22:15 Cloudy 59 15 54 12 82 82 NW 6 9 30.05 1018 10 16.0934 0 0
10:35 pm 22:35 Cloudy 59 15 54 12 82 82 Calm 30.04 1017 10 16.0934 0 0
10:55 pm 22:55 Cloudy 59 15 54 12 82 82 SSW 3 6 30.04 1017 10 16.0934 0 0
11:15 pm 23:15 Cloudy 55 13 54 12 94 94 W 7 11 30.04 1017 10 16.0934 0 0
11:35 pm 23:35 Cloudy 61 16 50 10 68 68 WNW 12 19 30.03 1017 10 16.0934 0 0
11:55 pm 23:55 Cloudy 61 16 50 10 68 68 W 9 15 30.03 1017 10 16.0934 0 0

Powered by AerisWeather